Year,Month,Day,Hour,Minute,Value (Times are PST for temperature in C)
2019,03,27,00,00,4.30
2019,03,27,00,01,4.30
2019,03,27,00,02,4.30
2019,03,27,00,03,4.30
2019,03,27,00,04,4.30
2019,03,27,00,05,4.30
2019,03,27,00,06,4.20
2019,03,27,00,07,4.20
2019,03,27,00,08,4.20
2019,03,27,00,09,4.20
2019,03,27,00,10,4.20
2019,03,27,00,11,4.20
2019,03,27,00,12,4.20
2019,03,27,00,13,4.20
2019,03,27,00,14,4.20
2019,03,27,00,15,4.20
2019,03,27,00,16,4.10
2019,03,27,00,17,4.10
2019,03,27,00,18,4.10
2019,03,27,00,19,4.10
2019,03,27,00,20,4.00
2019,03,27,00,21,4.00
2019,03,27,00,22,4.00
2019,03,27,00,23,4.00
2019,03,27,00,24,3.90
2019,03,27,00,25,3.90
2019,03,27,00,26,3.90
2019,03,27,00,27,3.90
2019,03,27,00,28,3.90
2019,03,27,00,29,3.90
2019,03,27,00,30,3.90
2019,03,27,00,31,3.90
2019,03,27,00,32,3.90
2019,03,27,00,33,3.90
2019,03,27,00,34,3.90
2019,03,27,00,35,3.80
2019,03,27,00,36,3.80
2019,03,27,00,37,3.80
2019,03,27,00,38,3.80
2019,03,27,00,39,3.80
2019,03,27,00,40,3.80
2019,03,27,00,41,3.80
2019,03,27,00,42,3.80
2019,03,27,00,43,3.70
2019,03,27,00,44,3.70
2019,03,27,00,45,3.70
2019,03,27,00,46,3.70
2019,03,27,00,47,3.70
2019,03,27,00,48,3.70
2019,03,27,00,49,3.60
2019,03,27,00,50,3.60
2019,03,27,00,51,3.60
2019,03,27,00,52,3.60
2019,03,27,00,53,3.50
2019,03,27,00,54,3.50
2019,03,27,00,55,3.40
2019,03,27,00,56,3.40
2019,03,27,00,57,3.40
2019,03,27,00,58,3.40
2019,03,27,00,59,3.40
2019,03,27,01,00,3.40
2019,03,27,01,01,3.40
2019,03,27,01,02,3.40
2019,03,27,01,03,3.30
2019,03,27,01,04,3.30
2019,03,27,01,05,3.30
2019,03,27,01,06,3.30
2019,03,27,01,07,3.30
2019,03,27,01,08,3.30
2019,03,27,01,09,3.30
2019,03,27,01,10,3.30
2019,03,27,01,11,3.30
2019,03,27,01,12,3.30
2019,03,27,01,13,3.30
2019,03,27,01,14,3.30
2019,03,27,01,15,3.30
2019,03,27,01,16,3.30
2019,03,27,01,17,3.30
2019,03,27,01,18,3.30
2019,03,27,01,19,3.40
2019,03,27,01,20,3.40
2019,03,27,01,21,3.40
2019,03,27,01,22,3.40
2019,03,27,01,23,3.40
2019,03,27,01,24,3.40
2019,03,27,01,25,3.50
2019,03,27,01,26,3.50
2019,03,27,01,27,3.50
2019,03,27,01,28,3.40
2019,03,27,01,29,3.40
2019,03,27,01,30,3.40
2019,03,27,01,31,3.40
2019,03,27,01,32,3.40
2019,03,27,01,33,3.40
2019,03,27,01,34,3.40
2019,03,27,01,35,3.40
2019,03,27,01,36,3.40
2019,03,27,01,37,3.40
2019,03,27,01,38,3.40
2019,03,27,01,39,3.40
2019,03,27,01,40,3.40
2019,03,27,01,41,3.40
2019,03,27,01,42,3.40
2019,03,27,01,43,3.40
2019,03,27,01,44,3.40
2019,03,27,01,45,3.40
2019,03,27,01,46,3.40
2019,03,27,01,47,3.40
2019,03,27,01,48,3.40
2019,03,27,01,49,3.40
2019,03,27,01,50,3.40
2019,03,27,01,51,3.40
2019,03,27,01,52,3.50
2019,03,27,01,53,3.50
2019,03,27,01,54,3.50
2019,03,27,01,55,3.50
2019,03,27,01,56,3.50
2019,03,27,01,57,3.40
2019,03,27,01,58,3.50
2019,03,27,01,59,3.50
2019,03,27,02,00,3.50
2019,03,27,02,01,3.50
2019,03,27,02,02,3.50
2019,03,27,02,03,3.50
2019,03,27,02,04,3.60
2019,03,27,02,05,3.60
2019,03,27,02,06,3.60
2019,03,27,02,07,3.60
2019,03,27,02,08,3.60
2019,03,27,02,09,3.60
2019,03,27,02,10,3.60
2019,03,27,02,11,3.60
2019,03,27,02,12,3.60
2019,03,27,02,13,3.60
2019,03,27,02,14,3.60
2019,03,27,02,15,3.60
2019,03,27,02,16,3.60
2019,03,27,02,17,3.60
2019,03,27,02,18,3.60
2019,03,27,02,19,3.60
2019,03,27,02,20,3.60
2019,03,27,02,21,3.60
2019,03,27,02,22,3.60
2019,03,27,02,23,3.60
2019,03,27,02,24,3.60
2019,03,27,02,25,3.60
2019,03,27,02,26,3.60
2019,03,27,02,27,3.60
2019,03,27,02,28,3.50
2019,03,27,02,29,3.50
2019,03,27,02,30,3.50
2019,03,27,02,31,3.50
2019,03,27,02,32,3.50
2019,03,27,02,33,3.50
2019,03,27,02,34,3.40
2019,03,27,02,35,3.40
2019,03,27,02,36,3.40
2019,03,27,02,37,3.40
2019,03,27,02,38,3.40
2019,03,27,02,39,3.40
2019,03,27,02,40,3.40
2019,03,27,02,41,3.40
2019,03,27,02,42,3.40
2019,03,27,02,43,3.40
2019,03,27,02,44,3.40
2019,03,27,02,45,3.40
2019,03,27,02,46,3.40
2019,03,27,02,47,3.40
2019,03,27,02,48,3.40
2019,03,27,02,49,3.40
2019,03,27,02,50,3.40
2019,03,27,02,51,3.40
2019,03,27,02,52,3.40
2019,03,27,02,53,3.40
2019,03,27,02,54,3.40
2019,03,27,02,55,3.40
2019,03,27,02,56,3.40
2019,03,27,02,57,3.40
2019,03,27,02,58,3.40
2019,03,27,02,59,3.40
2019,03,27,03,00,3.40
2019,03,27,03,01,3.40
2019,03,27,03,02,3.40
2019,03,27,03,03,3.40
2019,03,27,03,04,3.40
2019,03,27,03,05,3.40
2019,03,27,03,06,3.40
2019,03,27,03,07,3.30
2019,03,27,03,08,3.30
2019,03,27,03,09,3.30
2019,03,27,03,10,3.30
2019,03,27,03,11,3.30
2019,03,27,03,12,3.30
2019,03,27,03,13,3.30
2019,03,27,03,14,3.30
2019,03,27,03,15,3.30
2019,03,27,03,16,3.30
2019,03,27,03,17,3.30
2019,03,27,03,18,3.30
2019,03,27,03,19,3.30
2019,03,27,03,20,3.30
2019,03,27,03,21,3.30
2019,03,27,03,22,3.20
2019,03,27,03,23,3.20
2019,03,27,03,24,3.20
2019,03,27,03,25,3.20
2019,03,27,03,26,3.20
2019,03,27,03,27,3.20
2019,03,27,03,28,3.20
2019,03,27,03,29,3.20
2019,03,27,03,30,3.20
2019,03,27,03,31,3.20
2019,03,27,03,32,3.20
2019,03,27,03,33,3.20
2019,03,27,03,34,3.20
2019,03,27,03,35,3.20
2019,03,27,03,36,3.20
2019,03,27,03,37,3.20
2019,03,27,03,38,3.20
2019,03,27,03,39,3.20
2019,03,27,03,40,3.20
2019,03,27,03,41,3.20
2019,03,27,03,42,3.20
2019,03,27,03,43,3.20
2019,03,27,03,44,3.20
2019,03,27,03,45,3.20
2019,03,27,03,46,3.20
2019,03,27,03,47,3.20
2019,03,27,03,48,3.20
2019,03,27,03,49,3.20
2019,03,27,03,50,3.20
2019,03,27,03,51,3.20
2019,03,27,03,52,3.20
2019,03,27,03,53,3.20
2019,03,27,03,54,3.20
2019,03,27,03,55,3.20
2019,03,27,03,56,3.20
2019,03,27,03,57,3.20
2019,03,27,03,58,3.20
2019,03,27,03,59,3.20
2019,03,27,04,00,3.20
2019,03,27,04,01,3.20
2019,03,27,04,02,3.20
2019,03,27,04,03,3.20
2019,03,27,04,04,3.20
2019,03,27,04,05,3.20
2019,03,27,04,06,3.20
2019,03,27,04,07,3.20
2019,03,27,04,08,3.20
2019,03,27,04,09,3.10
2019,03,27,04,10,3.10
2019,03,27,04,11,3.10
2019,03,27,04,12,3.10
2019,03,27,04,13,3.10
2019,03,27,04,14,3.10
2019,03,27,04,15,3.10
2019,03,27,04,16,3.10
2019,03,27,04,17,3.10
2019,03,27,04,18,3.10
2019,03,27,04,19,3.10
2019,03,27,04,20,3.10
2019,03,27,04,21,3.10
2019,03,27,04,22,3.10
2019,03,27,04,23,3.10
2019,03,27,04,24,3.10
2019,03,27,04,25,3.10
2019,03,27,04,26,3.20
2019,03,27,04,27,3.20
2019,03,27,04,28,3.20
2019,03,27,04,29,3.20
2019,03,27,04,30,3.20
2019,03,27,04,31,3.20
2019,03,27,04,32,3.20
2019,03,27,04,33,3.20
2019,03,27,04,34,3.20
2019,03,27,04,35,3.20
2019,03,27,04,36,3.20
2019,03,27,04,37,3.20
2019,03,27,04,38,3.20
2019,03,27,04,39,3.20
2019,03,27,04,40,3.20
2019,03,27,04,41,3.20
2019,03,27,04,42,3.20
2019,03,27,04,43,3.20
2019,03,27,04,44,3.20
2019,03,27,04,45,3.20
2019,03,27,04,46,3.20
2019,03,27,04,47,3.20
2019,03,27,04,48,3.20
2019,03,27,04,49,3.20
2019,03,27,04,50,3.20
2019,03,27,04,51,3.10
2019,03,27,04,52,3.10
2019,03,27,04,53,3.10
2019,03,27,04,54,3.10
2019,03,27,04,55,3.10
2019,03,27,04,56,3.10
2019,03,27,04,57,3.10
2019,03,27,04,58,3.10
2019,03,27,04,59,3.10
2019,03,27,05,00,3.10
2019,03,27,05,01,3.10
2019,03,27,05,02,3.10
2019,03,27,05,03,3.10
2019,03,27,05,04,3.00
2019,03,27,05,05,3.00
2019,03,27,05,06,3.00
2019,03,27,05,07,3.00
2019,03,27,05,08,3.00
2019,03,27,05,09,2.90
2019,03,27,05,10,2.90
2019,03,27,05,11,2.90
2019,03,27,05,12,2.90
2019,03,27,05,13,2.90
2019,03,27,05,14,2.90
2019,03,27,05,15,2.90
2019,03,27,05,16,2.90
2019,03,27,05,17,2.90
2019,03,27,05,18,2.90
2019,03,27,05,19,2.80
2019,03,27,05,20,2.80
2019,03,27,05,21,2.80
2019,03,27,05,22,2.80
2019,03,27,05,23,2.80
2019,03,27,05,24,2.80
2019,03,27,05,25,2.80
2019,03,27,05,26,2.80
2019,03,27,05,27,2.80
2019,03,27,05,28,2.80
2019,03,27,05,29,2.80
2019,03,27,05,30,2.80
2019,03,27,05,31,2.80
2019,03,27,05,32,2.80
2019,03,27,05,33,2.70
2019,03,27,05,34,2.70
2019,03,27,05,35,2.70
2019,03,27,05,36,2.70
2019,03,27,05,37,2.70
2019,03,27,05,38,2.70
2019,03,27,05,39,2.70
2019,03,27,05,40,2.70
2019,03,27,05,41,2.70
2019,03,27,05,42,2.70
2019,03,27,05,43,2.60
2019,03,27,05,44,2.60
2019,03,27,05,45,2.60
2019,03,27,05,46,2.60
2019,03,27,05,47,2.60
2019,03,27,05,48,2.60
2019,03,27,05,49,2.60
2019,03,27,05,50,2.60
2019,03,27,05,51,2.60
2019,03,27,05,52,2.60
2019,03,27,05,53,2.50
2019,03,27,05,54,2.50
2019,03,27,05,55,2.50
2019,03,27,05,56,2.40
2019,03,27,05,57,2.40
2019,03,27,05,58,2.40
2019,03,27,05,59,2.40
2019,03,27,06,00,2.40
2019,03,27,06,01,2.30
2019,03,27,06,02,2.30
2019,03,27,06,03,2.30
2019,03,27,06,04,2.30
2019,03,27,06,05,2.30
2019,03,27,06,06,2.30
2019,03,27,06,07,2.20
2019,03,27,06,08,2.20
2019,03,27,06,09,2.20
2019,03,27,06,10,2.20
2019,03,27,06,11,2.20
2019,03,27,06,12,2.10
2019,03,27,06,13,2.10
2019,03,27,06,14,2.10
2019,03,27,06,15,2.10
2019,03,27,06,16,2.00
2019,03,27,06,17,2.00
2019,03,27,06,18,2.00
2019,03,27,06,19,1.90
2019,03,27,06,20,1.90
2019,03,27,06,21,1.90
2019,03,27,06,22,1.90
2019,03,27,06,23,1.90
2019,03,27,06,24,1.90
2019,03,27,06,25,1.90
2019,03,27,06,26,1.90
2019,03,27,06,27,1.90
2019,03,27,06,28,1.90
2019,03,27,06,29,1.90
2019,03,27,06,30,1.90
2019,03,27,06,31,1.90
2019,03,27,06,32,1.90
2019,03,27,06,33,1.90
2019,03,27,06,34,2.00
2019,03,27,06,35,2.00
2019,03,27,06,36,2.00
2019,03,27,06,37,2.10
2019,03,27,06,38,2.10
2019,03,27,06,39,2.10
2019,03,27,06,40,2.10
2019,03,27,06,41,2.10
2019,03,27,06,42,2.10
2019,03,27,06,43,2.10
2019,03,27,06,44,2.10
2019,03,27,06,45,2.10
2019,03,27,06,46,2.10
2019,03,27,06,47,2.10
2019,03,27,06,48,2.10
2019,03,27,06,49,2.10
2019,03,27,06,50,2.10
2019,03,27,06,51,2.10
2019,03,27,06,52,2.20
2019,03,27,06,53,2.20
2019,03,27,06,54,2.20
2019,03,27,06,55,2.20
2019,03,27,06,56,2.20
2019,03,27,06,57,2.20
2019,03,27,06,58,2.20
2019,03,27,06,59,2.10
2019,03,27,07,00,2.10
2019,03,27,07,01,2.10
2019,03,27,07,02,2.10
2019,03,27,07,03,2.10
2019,03,27,07,04,2.10
2019,03,27,07,05,2.10
2019,03,27,07,06,2.10
2019,03,27,07,07,2.10
2019,03,27,07,08,2.10
2019,03,27,07,09,2.10
2019,03,27,07,10,2.10
2019,03,27,07,11,2.10
2019,03,27,07,12,2.10
2019,03,27,07,13,2.10
2019,03,27,07,14,2.10
2019,03,27,07,15,2.10
2019,03,27,07,16,2.10
2019,03,27,07,17,2.10
2019,03,27,07,18,2.00
2019,03,27,07,19,2.00
2019,03,27,07,20,2.00
2019,03,27,07,21,2.00
2019,03,27,07,22,2.00
2019,03,27,07,23,2.00
2019,03,27,07,24,2.00
2019,03,27,07,25,2.00
2019,03,27,07,26,2.00
2019,03,27,07,27,2.00
2019,03,27,07,28,2.00
2019,03,27,07,29,2.00
2019,03,27,07,30,2.00
2019,03,27,07,31,2.00
2019,03,27,07,32,1.90
2019,03,27,07,33,1.90
2019,03,27,07,34,1.90
2019,03,27,07,35,1.90
2019,03,27,07,36,1.90
2019,03,27,07,37,1.90
2019,03,27,07,38,1.90
2019,03,27,07,39,1.90
2019,03,27,07,40,1.90
2019,03,27,07,41,1.90
2019,03,27,07,42,1.90
2019,03,27,07,43,1.80
2019,03,27,07,44,1.80
2019,03,27,07,45,1.80
2019,03,27,07,46,1.80
2019,03,27,07,47,1.80
2019,03,27,07,48,1.80
2019,03,27,07,49,1.80
2019,03,27,07,50,1.80
2019,03,27,07,51,1.80
2019,03,27,07,52,1.80
2019,03,27,07,53,1.80
2019,03,27,07,54,1.80
2019,03,27,07,55,1.80
2019,03,27,07,56,1.80
2019,03,27,07,57,1.80
2019,03,27,07,58,1.80
2019,03,27,07,59,1.80
2019,03,27,08,00,1.80
2019,03,27,08,01,1.80
2019,03,27,08,02,1.80
2019,03,27,08,03,1.80
2019,03,27,08,04,1.80
2019,03,27,08,05,1.80
2019,03,27,08,06,1.80
2019,03,27,08,07,1.80
2019,03,27,08,08,1.90
2019,03,27,08,09,1.90
2019,03,27,08,10,1.90
2019,03,27,08,11,1.90
2019,03,27,08,12,1.90
2019,03,27,08,13,2.00
2019,03,27,08,14,2.00
2019,03,27,08,15,2.00
2019,03,27,08,16,2.00
2019,03,27,08,17,2.10
2019,03,27,08,18,2.10
2019,03,27,08,19,2.10
2019,03,27,08,20,2.10
2019,03,27,08,21,2.10
2019,03,27,08,22,2.10
2019,03,27,08,23,2.10
2019,03,27,08,24,2.20
2019,03,27,08,25,2.20
2019,03,27,08,26,2.20
2019,03,27,08,27,2.20
2019,03,27,08,28,2.30
2019,03,27,08,29,2.30
2019,03,27,08,30,2.30
2019,03,27,08,31,2.30
2019,03,27,08,32,2.40
2019,03,27,08,33,2.40
2019,03,27,08,34,2.40
2019,03,27,08,35,2.40
2019,03,27,08,36,2.50
2019,03,27,08,37,2.50
2019,03,27,08,38,2.60
2019,03,27,08,39,2.60
2019,03,27,08,40,2.60
2019,03,27,08,41,2.60
2019,03,27,08,42,2.60
2019,03,27,08,43,2.60
2019,03,27,08,44,2.60
2019,03,27,08,45,2.70
2019,03,27,08,46,2.70
2019,03,27,08,47,2.70
2019,03,27,08,48,2.70
2019,03,27,08,49,2.80
2019,03,27,08,50,2.80
2019,03,27,08,51,2.80
2019,03,27,08,52,2.80
2019,03,27,08,53,2.80
2019,03,27,08,54,2.80
2019,03,27,08,55,2.90
2019,03,27,08,56,2.90
2019,03,27,08,57,2.90
2019,03,27,08,58,2.90
2019,03,27,08,59,2.90
2019,03,27,09,00,2.90
2019,03,27,09,01,3.00
2019,03,27,09,02,3.00
2019,03,27,09,03,3.00
2019,03,27,09,04,3.00
2019,03,27,09,05,3.00
2019,03,27,09,06,3.00
2019,03,27,09,07,3.10
2019,03,27,09,08,3.10
2019,03,27,09,09,3.10
2019,03,27,09,10,3.10
2019,03,27,09,11,3.20
2019,03,27,09,12,3.20
2019,03,27,09,13,3.20
2019,03,27,09,14,3.20
2019,03,27,09,15,3.20
2019,03,27,09,16,3.20
2019,03,27,09,17,3.20
2019,03,27,09,18,3.20
2019,03,27,09,19,3.20
2019,03,27,09,20,3.20
2019,03,27,09,21,3.30
2019,03,27,09,22,3.30
2019,03,27,09,23,3.30
2019,03,27,09,24,3.30
2019,03,27,09,25,3.30
2019,03,27,09,26,3.30
2019,03,27,09,27,3.30
2019,03,27,09,28,3.30
2019,03,27,09,29,3.30
2019,03,27,09,30,3.40
2019,03,27,09,31,3.40
2019,03,27,09,32,3.40
2019,03,27,09,33,3.40
2019,03,27,09,34,3.40
2019,03,27,09,35,3.40
2019,03,27,09,36,3.40
2019,03,27,09,37,3.40
2019,03,27,09,38,3.50
2019,03,27,09,39,3.50
2019,03,27,09,40,3.50
2019,03,27,09,41,3.50
2019,03,27,09,42,3.50
2019,03,27,09,43,3.60
2019,03,27,09,44,3.60
2019,03,27,09,45,3.60
2019,03,27,09,46,3.60
2019,03,27,09,47,3.60
2019,03,27,09,48,3.60
2019,03,27,09,49,3.60
2019,03,27,09,50,3.70
2019,03,27,09,51,3.70
2019,03,27,09,52,3.70
2019,03,27,09,53,3.70
2019,03,27,09,54,3.70
2019,03,27,09,55,3.80
2019,03,27,09,56,3.80
2019,03,27,09,57,3.80
2019,03,27,09,58,3.80
2019,03,27,09,59,3.80
2019,03,27,10,00,3.80
2019,03,27,10,01,3.80
2019,03,27,10,02,3.80
2019,03,27,10,03,3.80
2019,03,27,10,04,3.80
2019,03,27,10,05,3.80
2019,03,27,10,06,3.90
2019,03,27,10,07,3.90
2019,03,27,10,08,3.90
2019,03,27,10,09,3.90
2019,03,27,10,10,3.90
2019,03,27,10,11,3.90
2019,03,27,10,12,3.90
2019,03,27,10,13,3.90
2019,03,27,10,14,3.90
2019,03,27,10,15,3.90
2019,03,27,10,16,4.00
2019,03,27,10,17,4.00
2019,03,27,10,18,4.00
2019,03,27,10,19,4.10
2019,03,27,10,20,4.10
2019,03,27,10,21,4.20
2019,03,27,10,22,4.30
2019,03,27,10,23,4.30
2019,03,27,10,24,4.30
2019,03,27,10,25,4.30
2019,03,27,10,26,4.30
2019,03,27,10,27,4.30
2019,03,27,10,28,4.30
2019,03,27,10,29,4.30
2019,03,27,10,30,4.30
2019,03,27,10,31,4.30
2019,03,27,10,32,4.30
2019,03,27,10,33,4.30
2019,03,27,10,34,4.40
2019,03,27,10,35,4.40
2019,03,27,10,36,4.40
2019,03,27,10,37,4.50
2019,03,27,10,38,4.50
2019,03,27,10,39,4.50
2019,03,27,10,40,4.50
2019,03,27,10,41,4.50
2019,03,27,10,42,4.60
2019,03,27,10,43,4.60
2019,03,27,10,44,4.60
2019,03,27,10,45,4.60
2019,03,27,10,46,4.60
2019,03,27,10,47,4.60
2019,03,27,10,48,4.60
2019,03,27,10,49,4.60
2019,03,27,10,50,4.70
2019,03,27,10,51,4.70
2019,03,27,10,52,4.70
2019,03,27,10,53,4.80
2019,03,27,10,54,4.80
2019,03,27,10,55,4.80
2019,03,27,10,56,4.90
2019,03,27,10,57,4.90
2019,03,27,10,58,4.90
2019,03,27,10,59,5.00
2019,03,27,11,00,5.10
2019,03,27,11,01,5.10
2019,03,27,11,02,5.20
2019,03,27,11,03,5.30
2019,03,27,11,04,5.30
2019,03,27,11,05,5.40
2019,03,27,11,06,5.60
2019,03,27,11,07,5.70
2019,03,27,11,08,5.70
2019,03,27,11,09,5.70
2019,03,27,11,10,5.70
2019,03,27,11,11,5.70
2019,03,27,11,12,5.80
2019,03,27,11,13,5.90
2019,03,27,11,14,5.90
2019,03,27,11,15,6.00
2019,03,27,11,16,5.90
2019,03,27,11,17,5.90
2019,03,27,11,18,5.90
2019,03,27,11,19,5.90
2019,03,27,11,20,5.90
2019,03,27,11,21,5.90
2019,03,27,11,22,5.90
2019,03,27,11,23,6.00
2019,03,27,11,24,6.00
2019,03,27,11,25,6.10
2019,03,27,11,26,6.20
2019,03,27,11,27,6.20
2019,03,27,11,28,6.20
2019,03,27,11,29,6.20
2019,03,27,11,30,6.30
2019,03,27,11,31,6.40
2019,03,27,11,32,6.40
2019,03,27,11,33,6.50
2019,03,27,11,34,6.60
2019,03,27,11,35,6.70
2019,03,27,11,36,6.80
2019,03,27,11,37,6.90
2019,03,27,11,38,6.90
2019,03,27,11,39,7.00
2019,03,27,11,40,7.00
2019,03,27,11,41,7.00
2019,03,27,11,42,7.10
2019,03,27,11,43,7.10
2019,03,27,11,44,7.10
2019,03,27,11,45,7.10
2019,03,27,11,46,7.20
2019,03,27,11,47,7.20
2019,03,27,11,48,7.30
2019,03,27,11,49,7.30
2019,03,27,11,50,7.30
2019,03,27,11,51,7.30
2019,03,27,11,52,7.30
2019,03,27,11,53,7.20
2019,03,27,11,54,7.20
2019,03,27,11,55,7.10
2019,03,27,11,56,7.00
2019,03,27,11,57,6.80
2019,03,27,11,58,6.80
2019,03,27,11,59,6.80
2019,03,27,12,00,6.80
2019,03,27,12,01,6.80
2019,03,27,12,02,6.90
2019,03,27,12,03,6.90
2019,03,27,12,04,7.00
2019,03,27,12,05,7.10
2019,03,27,12,06,7.10
2019,03,27,12,07,7.20
2019,03,27,12,08,7.20
2019,03,27,12,09,7.30
2019,03,27,12,10,7.40
2019,03,27,12,11,7.50
2019,03,27,12,12,7.60
2019,03,27,12,13,7.70
2019,03,27,12,14,7.80
2019,03,27,12,15,7.90
2019,03,27,12,16,8.00
2019,03,27,12,17,8.10
2019,03,27,12,18,8.20
2019,03,27,12,19,8.40
2019,03,27,12,20,8.50
2019,03,27,12,21,8.60
2019,03,27,12,22,8.70
2019,03,27,12,23,8.70
2019,03,27,12,24,8.80
2019,03,27,12,25,8.80
2019,03,27,12,26,8.90
2019,03,27,12,27,8.90
2019,03,27,12,28,8.90
2019,03,27,12,29,8.90
2019,03,27,12,30,8.90
2019,03,27,12,31,8.90
2019,03,27,12,32,8.90
2019,03,27,12,33,8.90
2019,03,27,12,34,8.90
2019,03,27,12,35,8.90
2019,03,27,12,36,8.90
2019,03,27,12,37,9.00
2019,03,27,12,38,9.00
2019,03,27,12,39,9.10
2019,03,27,12,40,9.10
2019,03,27,12,41,9.10
2019,03,27,12,42,9.10
2019,03,27,12,43,9.20
2019,03,27,12,44,9.20
2019,03,27,12,45,9.30
2019,03,27,12,46,9.30
2019,03,27,12,47,9.40
2019,03,27,12,48,9.40
2019,03,27,12,49,9.40
2019,03,27,12,50,9.50
2019,03,27,12,51,9.60
2019,03,27,12,52,9.60
2019,03,27,12,53,9.70
2019,03,27,12,54,9.80
2019,03,27,12,55,9.90
2019,03,27,12,56,10.00
2019,03,27,12,57,10.00
2019,03,27,12,58,10.10
2019,03,27,12,59,10.20
2019,03,27,13,00,10.30
2019,03,27,13,01,10.40
2019,03,27,13,02,10.50
2019,03,27,13,03,10.60
2019,03,27,13,04,10.70
2019,03,27,13,05,10.80
2019,03,27,13,06,10.80
2019,03,27,13,07,10.90
2019,03,27,13,08,10.90
2019,03,27,13,09,10.90
2019,03,27,13,10,10.80
2019,03,27,13,11,10.80
2019,03,27,13,12,10.80
2019,03,27,13,13,10.90
2019,03,27,13,14,10.90
2019,03,27,13,15,11.00
2019,03,27,13,16,11.00
2019,03,27,13,17,11.00
2019,03,27,13,18,11.00
2019,03,27,13,19,11.00
2019,03,27,13,20,11.10
2019,03,27,13,21,11.10
2019,03,27,13,22,11.10
2019,03,27,13,23,11.10
2019,03,27,13,24,11.20
2019,03,27,13,25,11.30
2019,03,27,13,26,11.30
2019,03,27,13,27,11.40
2019,03,27,13,28,11.40
2019,03,27,13,29,11.40
2019,03,27,13,30,11.50
2019,03,27,13,31,11.50
2019,03,27,13,32,11.50
2019,03,27,13,33,11.50
2019,03,27,13,34,11.60
2019,03,27,13,35,11.50
2019,03,27,13,36,11.50
2019,03,27,13,37,11.50
2019,03,27,13,38,11.40
2019,03,27,13,39,11.40
2019,03,27,13,40,11.50
2019,03,27,13,41,11.60
2019,03,27,13,42,11.60
2019,03,27,13,43,11.70
2019,03,27,13,44,11.70
2019,03,27,13,45,11.80
2019,03,27,13,46,11.80
2019,03,27,13,47,11.90
2019,03,27,13,48,12.00
2019,03,27,13,49,12.00
2019,03,27,13,50,12.00
2019,03,27,13,51,12.10
2019,03,27,13,52,12.20
2019,03,27,13,53,12.20
2019,03,27,13,54,12.30
2019,03,27,13,55,12.20
2019,03,27,13,56,12.20
2019,03,27,13,57,12.20
2019,03,27,13,58,12.20
2019,03,27,13,59,12.30
2019,03,27,14,00,12.30
2019,03,27,14,01,12.30
2019,03,27,14,02,12.30
2019,03,27,14,03,12.30
2019,03,27,14,04,12.30
2019,03,27,14,05,12.30
2019,03,27,14,06,12.30
2019,03,27,14,07,12.30
2019,03,27,14,08,12.30
2019,03,27,14,09,12.30
2019,03,27,14,10,12.30
2019,03,27,14,11,12.30
2019,03,27,14,12,12.30
2019,03,27,14,13,12.40
2019,03,27,14,14,12.40
2019,03,27,14,15,12.40
2019,03,27,14,16,12.50
2019,03,27,14,17,12.50
2019,03,27,14,18,12.60
2019,03,27,14,19,12.60
2019,03,27,14,20,12.70
2019,03,27,14,21,12.70
2019,03,27,14,22,12.70
2019,03,27,14,23,12.70
2019,03,27,14,24,12.70
2019,03,27,14,25,12.70
2019,03,27,14,26,12.80
2019,03,27,14,27,12.80
2019,03,27,14,28,12.80
2019,03,27,14,29,12.90
2019,03,27,14,30,12.90
2019,03,27,14,31,13.00
2019,03,27,14,32,13.00
2019,03,27,14,33,13.10
2019,03,27,14,34,13.10
2019,03,27,14,35,13.10
2019,03,27,14,36,13.10
2019,03,27,14,37,13.00
2019,03,27,14,38,13.00
2019,03,27,14,39,12.90
2019,03,27,14,40,12.90
2019,03,27,14,41,12.90
2019,03,27,14,42,12.80
2019,03,27,14,43,12.80
2019,03,27,14,44,12.80
2019,03,27,14,45,12.70
2019,03,27,14,46,12.70
2019,03,27,14,47,12.70
2019,03,27,14,48,12.70
2019,03,27,14,49,12.70
2019,03,27,14,50,12.70
2019,03,27,14,51,12.70
2019,03,27,14,52,12.70
2019,03,27,14,53,12.70
2019,03,27,14,54,12.60
2019,03,27,14,55,12.60
2019,03,27,14,56,12.60
2019,03,27,14,57,12.60
2019,03,27,14,58,12.60
2019,03,27,14,59,12.60
2019,03,27,15,00,12.60
2019,03,27,15,01,12.70
2019,03,27,15,02,12.70
2019,03,27,15,03,12.80
2019,03,27,15,04,12.80
2019,03,27,15,05,12.80
2019,03,27,15,06,12.90
2019,03,27,15,07,12.90
2019,03,27,15,08,13.00
2019,03,27,15,09,13.10
2019,03,27,15,10,13.10
2019,03,27,15,11,13.20
2019,03,27,15,12,13.20
2019,03,27,15,13,13.20
2019,03,27,15,14,13.20
2019,03,27,15,15,13.20
2019,03,27,15,16,13.20
2019,03,27,15,17,13.20
2019,03,27,15,18,13.10
2019,03,27,15,19,13.20
2019,03,27,15,20,13.20
2019,03,27,15,21,13.20
2019,03,27,15,22,13.30
2019,03,27,15,23,13.40
2019,03,27,15,24,13.60
2019,03,27,15,25,13.70
2019,03,27,15,26,13.70
2019,03,27,15,27,13.70
2019,03,27,15,28,13.70
2019,03,27,15,29,13.70
2019,03,27,15,30,13.60
2019,03,27,15,31,13.60
2019,03,27,15,32,13.60
2019,03,27,15,33,13.60
2019,03,27,15,34,13.60
2019,03,27,15,35,13.60
2019,03,27,15,36,13.70
2019,03,27,15,37,13.70
2019,03,27,15,38,13.70
2019,03,27,15,39,13.80
2019,03,27,15,40,13.80
2019,03,27,15,41,13.80
2019,03,27,15,42,13.80
2019,03,27,15,43,13.80
2019,03,27,15,44,13.80
2019,03,27,15,45,13.80
2019,03,27,15,46,13.80
2019,03,27,15,47,13.80
2019,03,27,15,48,13.90
2019,03,27,15,49,13.90
2019,03,27,15,50,13.90
2019,03,27,15,51,14.00
2019,03,27,15,52,14.00
2019,03,27,15,53,14.10
2019,03,27,15,54,14.10
2019,03,27,15,55,14.20
2019,03,27,15,56,14.30
2019,03,27,15,57,14.50
2019,03,27,15,58,14.60
2019,03,27,15,59,14.80
2019,03,27,16,00,14.90
2019,03,27,16,01,15.00
2019,03,27,16,02,15.10
2019,03,27,16,03,15.10
2019,03,27,16,04,15.20
2019,03,27,16,05,15.20
2019,03,27,16,06,15.20
2019,03,27,16,07,15.10
2019,03,27,16,08,15.00
2019,03,27,16,09,14.90
2019,03,27,16,10,14.80
2019,03,27,16,11,14.80
2019,03,27,16,12,14.70
2019,03,27,16,13,14.80
2019,03,27,16,14,14.80
2019,03,27,16,15,14.80
2019,03,27,16,16,14.80
2019,03,27,16,17,14.90
2019,03,27,16,18,15.00
2019,03,27,16,19,15.00
2019,03,27,16,20,15.10
2019,03,27,16,21,15.10
2019,03,27,16,22,15.10
2019,03,27,16,23,15.10
2019,03,27,16,24,15.10
2019,03,27,16,25,15.10
2019,03,27,16,26,15.10
2019,03,27,16,27,15.10
2019,03,27,16,28,15.00
2019,03,27,16,29,14.90
2019,03,27,16,30,14.90
2019,03,27,16,31,14.80
2019,03,27,16,32,14.80
2019,03,27,16,33,14.80
2019,03,27,16,34,14.80
2019,03,27,16,35,14.80
2019,03,27,16,36,14.80
2019,03,27,16,37,14.80
2019,03,27,16,38,14.80
2019,03,27,16,39,14.80
2019,03,27,16,40,14.80
2019,03,27,16,41,14.80
2019,03,27,16,42,14.70
2019,03,27,16,43,14.70
2019,03,27,16,44,14.60
2019,03,27,16,45,14.60
2019,03,27,16,46,14.60
2019,03,27,16,47,14.50
2019,03,27,16,48,14.50
2019,03,27,16,49,14.50
2019,03,27,16,50,14.40
2019,03,27,16,51,14.30
2019,03,27,16,52,14.30
2019,03,27,16,53,14.20
2019,03,27,16,54,14.00
2019,03,27,16,55,13.90
2019,03,27,16,56,13.90
2019,03,27,16,57,13.80
2019,03,27,16,58,13.80
2019,03,27,16,59,13.80
2019,03,27,17,00,13.80
2019,03,27,17,01,13.80
2019,03,27,17,02,13.80
2019,03,27,17,03,13.80
2019,03,27,17,04,13.80
2019,03,27,17,05,13.70
2019,03,27,17,06,13.70
2019,03,27,17,07,13.70
2019,03,27,17,08,13.80
2019,03,27,17,09,13.80
2019,03,27,17,10,13.80
2019,03,27,17,11,13.80
2019,03,27,17,12,13.90
2019,03,27,17,13,13.90
2019,03,27,17,14,13.90
2019,03,27,17,15,13.80
2019,03,27,17,16,13.70
2019,03,27,17,17,13.60
2019,03,27,17,18,13.60
2019,03,27,17,19,13.60
2019,03,27,17,20,13.60
2019,03,27,17,21,13.50
2019,03,27,17,22,13.50
2019,03,27,17,23,13.40
2019,03,27,17,24,13.40
2019,03,27,17,25,13.40
2019,03,27,17,26,13.40
2019,03,27,17,27,13.40
2019,03,27,17,28,13.50
2019,03,27,17,29,13.50
2019,03,27,17,30,13.50
2019,03,27,17,31,13.60
2019,03,27,17,32,13.70
2019,03,27,17,33,13.70
2019,03,27,17,34,13.80
2019,03,27,17,35,13.80
2019,03,27,17,36,13.80
2019,03,27,17,37,13.80
2019,03,27,17,38,13.80
2019,03,27,17,39,13.80
2019,03,27,17,40,13.80
2019,03,27,17,41,13.60
2019,03,27,17,42,13.60
2019,03,27,17,43,13.50
2019,03,27,17,44,13.40
2019,03,27,17,45,13.30
2019,03,27,17,46,13.20
2019,03,27,17,47,13.00
2019,03,27,17,48,12.90
2019,03,27,17,49,12.80
2019,03,27,17,50,12.70
2019,03,27,17,51,12.60
2019,03,27,17,52,12.60
2019,03,27,17,53,12.50